Miscellaneous Local Product
Issued by NWS Hastings, NE

Home | Current Version | Previous Version | Text Only | Print | Product List | Glossary Off
Versions: 1 2 3 4 5 6 7 8 9 10 11 12 13 14 15 16 17 18 19 20 21 22 23 24 25 26 27 28 29 30 31 32 33 34 35 36 37 38 39 40 41 42 43 44 45 46 47 48 49 50

000
AXUS43 KGID 290202
MISGRI

GID CWA HOURLY WEATHER ROUNDUP
NATIONAL WEATHER SERVICE HASTINGS NE
900 PM CDT MON JUL 28 2014

NOTE: "FAIR" INDICATES FEW OR NO CLOUDS BELOW 12,000 FEET WITH NO
SIGNIFICANT WEATHER AND/OR OBSTRUCTIONS TO VISIBILITY.

...SOUTH CENTRAL NEBRASKA...

CITY           SKY/WX    TMP DP  RH WIND       PRES   REMARKS
GRAND ISLAND   CLEAR     70  57  63 E7        30.22S
HASTINGS       CLEAR     71  56  58 E8        30.21S
KEARNEY        CLEAR     70  57  64 NE6       30.21S
ORD            CLEAR     69  58  67 E3        30.20S
YORK           CLEAR     66  59  77 NE5       30.22S
AURORA         CLEAR     67  60  77 E5        30.22S
LEXINGTON      CLEAR     73  61  66 E8        30.20S
HOLDREGE       CLEAR     70  60  71 E8        30.20S
HEBRON         CLEAR     69  57  64 NE5       30.20S

...NEBRASKA PANHANDLE...

CITY           SKY/WX    TMP DP  RH WIND       PRES   REMARKS
CHADRON        CLEAR     80  55  42 E15       30.18R
ALLIANCE       CLEAR     79  57  46 E15       30.20S
SCOTTSBLUFF    CLEAR     79  61  53 E8        30.19R
SIDNEY         MOCLDY    79  54  41 SE9       30.24R

...WESTERN AND NORTH CENTRAL NEBRASKA...

CITY           SKY/WX    TMP DP  RH WIND       PRES   REMARKS
VALENTINE      CLEAR     74  52  46 NE8       30.22S
AINSWORTH      CLEAR     71  57  61 E7        30.23S
ONEILL         CLEAR     68  55  62 E6        30.23R
BROKEN BOW     CLEAR     70  59  68 E7        30.22S
IMPERIAL       MOCLDY    82  52  35 S8        30.19S
NORTH PLATTE   CLEAR     72  59  63 SE8       30.20S
MCCOOK         PTCLDY    76  59  55 E15       30.18S

...EASTERN NEBRASKA...

CITY           SKY/WX    TMP DP  RH WIND       PRES   REMARKS
NORFOLK        CLEAR     69  53  56 N3        30.21S
SO SIOUX CITY  MOCLDY    69  58  67 NW5       30.18S
TEKAMAH        CLEAR     67  58  72 NW7       30.18S
ALBION         CLEAR     65  57  75 E5        30.22S
OMAHA EPPLEY   PTCLDY    69  56  62 NW6       30.17S
OFFUTT AFB     CLEAR     70  56  62 N3        30.17S
MILLARD        CLEAR     73  55  53 NW3       30.18S
LINCOLN        CLEAR     69  54  58 N6        30.20S
NEBRASKA CITY  CLEAR     68  55  62 NW5       30.18S
BEATRICE       CLEAR     65  58  78 N5        30.20S
FALLS CITY     CLEAR     70  56  61 NW3       30.16S

...NORTHERN KANSAS...

CITY           SKY/WX    TMP DP  RH WIND       PRES   REMARKS
GOODLAND       MOCLDY    74  55  51 S10       30.24S
HILL CITY      PTCLDY    80  58  46 E8        30.17R
NORTON         CLEAR     75  54  46 NE13      30.18R
PHILLIPSBURG   CLEAR     81  54  39 NE14      30.17S
SMITH CENTER   CLEAR     73  57  56 E9        30.19R
HAYS           PTCLDY    79  57  47 E9        30.18R
RUSSELL        CLEAR     76  59  55 SE7       30.16S
CONCORDIA      CLEAR     72  57  59 NE6       30.19S
SALINA         CLEAR     81  54  39 NE9       30.17R
TOPEKA         CLEAR     73  57  57 N7        30.16S



USA.gov is the U.S. government's official web portal to all federal, state and local government web resources and services.